Weather History for Oskaloosa, IA

Change the Weather History Date:

Sunday, June 15, 2014

  Actual Average (KOTM) Record (KOTM)
Temperature  
Mean Temperature 74 °F 71 °F  
Max Temperature 83 °F 82 °F 96 °F (1952)
Min Temperature 65 °F 61 °F 44 °F (1917)
Degree Days  
Heating Degree Days 0 1  
Month to date heating degree days 19  
Since 1 June heating degree days 19  
Since 1 July heating degree days 6315  
Cooling Degree Days 8 7  
Month to date cooling degree days 75  
Year to date cooling degree days 139  
Since 1 June cooling degree days 75  
Growing Degree Days 24 (Base 50)    
Moisture  
Dew Point 59 °F    
Average Humidity 63    
Maximum Humidity 84    
Minimum Humidity 43    
Precipitation  
Precipitation 0.00 in 0.17 in 2.70 in (1946)
Month to date precipitation 2.57  
Year to date precipitation 15.10  
Sea Level Pressure  
Sea Level Pressure 29.81 in    
Wind  
Wind Speed 16 mph (SSW)    
Max Wind Speed 23 mph    
Max Gust Speed 33 mph    
Visibility 10 miles    
Events Rain    
T = Trace of Precipitation, MM = Missing Value Source: NWS Daily Summary

Daily Weather History Graph

Daily Weather History Graph

Search for Another Location

Airport:

Trip Planner

Search our weather history database for the weather conditions in past years. The results will help you decide how hot, cold, wet, or windy it might be!

Date:

Astronomy

Jun. 15, 2014 Rise Set
Actual Time 5:36 AM CDT 8:44 PM CDT
Civil Twilight 5:02 AM CDT 9:18 PM CDT
Nautical Twilight 4:19 AM CDT 10:01 PM CDT
Astronomical Twilight 3:28 AM CDT 10:53 PM CDT
Moon 10:53 PM CDT (6/15) 8:31 AM CDT (6/15)
Length of Visible Light 16h 15m
Length of Day
15h 08m
Waning Gibbous, 91% of the Moon is Illuminated
Jun 15
Waning Gibbous
Jun 19
Last Quarter
Jun 27
New
Jul 5
First Quarter
Jul 12
Full

Hourly Weather History & Observations

Time (CDT) Temp. Heat Index Dew Point Humidity Pressure Visibility Wind Dir Wind Speed Gust Speed Precip Events Conditions
12:15 AM 67.5 °F - 53.1 °F 60% 29.80 in 10.0 mi SE 11.5 mph - N/A   Mostly Cloudy
12:35 AM 67.3 °F - 53.1 °F 60% 29.78 in 10.0 mi SSE 15.0 mph - N/A   Clear
1:15 AM 68.0 °F - 53.8 °F 60% 29.75 in 10.0 mi SSE 18.4 mph 24.2 mph N/A   Clear
1:35 AM 68.0 °F - 54.0 °F 61% 29.75 in 10.0 mi SSE 20.7 mph 26.5 mph N/A   Clear
1:55 AM 68.0 °F - 54.5 °F 62% 29.75 in 10.0 mi SSE 19.6 mph 25.3 mph N/A   Scattered Clouds
2:15 AM 68.4 °F - 54.9 °F 62% 29.75 in 10.0 mi SSE 18.4 mph 26.5 mph N/A   Mostly Cloudy
2:35 AM 68.5 °F - 55.4 °F 63% 29.75 in 10.0 mi South 19.6 mph 25.3 mph N/A   Overcast
2:55 AM 67.8 °F - 55.6 °F 65% 29.74 in 10.0 mi SSE 20.7 mph 26.5 mph N/A   Scattered Clouds
3:15 AM 67.6 °F - 55.6 °F 65% 29.73 in 10.0 mi SSE 19.6 mph 26.5 mph N/A   Scattered Clouds
3:35 AM 67.1 °F - 55.9 °F 67% 29.72 in 10.0 mi SSE 18.4 mph 26.5 mph N/A   Mostly Cloudy
3:55 AM 67.5 °F - 56.3 °F 67% 29.71 in 10.0 mi SSE 23.0 mph 32.2 mph N/A   Overcast
4:15 AM 68.0 °F - 56.7 °F 67% 29.71 in 10.0 mi SSE 20.7 mph 33.4 mph N/A   Overcast
4:35 AM 67.5 °F - 56.7 °F 68% 29.73 in 10.0 mi South 18.4 mph - N/A   Overcast
4:55 AM 67.5 °F - 57.2 °F 70% 29.72 in 10.0 mi South 18.4 mph 26.5 mph N/A   Overcast
5:15 AM 67.3 °F - 57.4 °F 70% 29.72 in 10.0 mi South 19.6 mph 25.3 mph N/A   Overcast
5:35 AM 67.1 °F - 57.7 °F 72% 29.70 in 10.0 mi SSE 20.7 mph 25.3 mph N/A   Overcast
5:55 AM 67.1 °F - 58.1 °F 73% 29.70 in 10.0 mi SSE 18.4 mph 24.2 mph N/A   Overcast
6:15 AM 66.6 °F - 59.2 °F 77% 29.72 in 10.0 mi South 19.6 mph 25.3 mph N/A Rain Light Rain
6:35 AM 66.6 °F - 59.4 °F 78% 29.73 in 10.0 mi South 17.3 mph 21.9 mph N/A   Mostly Cloudy
6:55 AM 67.1 °F - 59.9 °F 78% 29.73 in 10.0 mi South 15.0 mph 21.9 mph N/A   Scattered Clouds
7:15 AM 68.0 °F - 60.8 °F 78% 29.72 in 10.0 mi South 16.1 mph - N/A   Scattered Clouds
7:35 AM 69.1 °F - 61.5 °F 77% 29.70 in 10.0 mi SSE 15.0 mph - N/A   Clear
7:55 AM 69.8 °F - 61.9 °F 76% 29.69 in 10.0 mi SSE 15.0 mph - N/A   Scattered Clouds
8:15 AM 70.7 °F - 62.6 °F 75% 29.69 in 10.0 mi SSE 16.1 mph 20.7 mph N/A   Mostly Cloudy
8:35 AM 72.3 °F - 63.0 °F 72% 29.67 in 10.0 mi SSE 15.0 mph 21.9 mph N/A   Scattered Clouds
8:55 AM 72.1 °F - 63.0 °F 73% 29.67 in 10.0 mi SSE 19.6 mph 24.2 mph N/A   Clear
9:15 AM 71.6 °F - 62.6 °F 73% 29.63 in 10.0 mi SSE 20.7 mph 26.5 mph N/A   Clear
9:35 AM 72.1 °F - 63.3 °F 74% 29.72 in 10.0 mi SSW 15.0 mph - N/A   Clear
9:55 AM 73.8 °F - 63.9 °F 71% 29.74 in 10.0 mi SW 15.0 mph - N/A   Mostly Cloudy
10:15 AM 74.7 °F - 63.7 °F 69% 29.76 in 10.0 mi SW 17.3 mph - N/A   Scattered Clouds
10:35 AM 76.8 °F - 62.1 °F 60% 29.76 in 10.0 mi SW 18.4 mph 25.3 mph N/A   Clear
10:55 AM 78.4 °F - 61.0 °F 55% 29.77 in 10.0 mi SW 19.6 mph 26.5 mph N/A   Scattered Clouds
11:15 AM 76.5 °F - 61.0 °F 59% 29.78 in 10.0 mi West 21.9 mph - N/A   Scattered Clouds
11:35 AM 75.2 °F - 61.0 °F 61% 29.79 in 10.0 mi SW 17.3 mph - N/A   Scattered Clouds
11:55 AM 75.4 °F - 61.3 °F 62% 29.80 in 10.0 mi WSW 15.0 mph - N/A   Mostly Cloudy
12:15 PM 75.2 °F - 61.2 °F 62% 29.81 in 10.0 mi WSW 19.6 mph - N/A   Overcast
12:35 PM 75.4 °F - 61.0 °F 61% 29.81 in 10.0 mi WSW 16.1 mph 24.2 mph N/A   Overcast
12:55 PM 76.6 °F - 61.5 °F 59% 29.82 in 10.0 mi WSW 17.3 mph - N/A   Overcast
1:15 PM 79.0 °F - 61.0 °F 54% 29.82 in 10.0 mi West 16.1 mph - N/A   Mostly Cloudy
1:35 PM 78.8 °F - 61.2 °F 55% 29.83 in 10.0 mi WSW 16.1 mph - N/A   Mostly Cloudy
1:55 PM 78.3 °F - 60.8 °F 55% 29.84 in 10.0 mi West 17.3 mph - N/A   Mostly Cloudy
2:15 PM 77.4 °F - 60.8 °F 57% 29.85 in 10.0 mi West 12.7 mph - N/A   Overcast
2:35 PM 78.6 °F - 60.6 °F 54% 29.85 in 10.0 mi West 16.1 mph 19.6 mph N/A   Mostly Cloudy
2:55 PM 79.2 °F - 60.4 °F 53% 29.85 in 10.0 mi WSW 15.0 mph 18.4 mph N/A   Mostly Cloudy
3:15 PM 80.1 °F 81.0 °F 60.6 °F 51% 29.86 in 10.0 mi West 4.6 mph 19.6 mph N/A   Mostly Cloudy
3:35 PM 80.2 °F 81.1 °F 60.8 °F 51% 29.85 in 10.0 mi WSW 13.8 mph - N/A   Scattered Clouds
3:55 PM 81.3 °F 82.1 °F 60.8 °F 50% 29.86 in 10.0 mi West 11.5 mph 19.6 mph N/A   Mostly Cloudy
4:15 PM 82.4 °F 82.6 °F 59.7 °F 46% 29.86 in 10.0 mi West 13.8 mph 17.3 mph N/A   Scattered Clouds
4:35 PM 81.7 °F 81.6 °F 58.1 °F 44% 29.87 in 10.0 mi West 10.4 mph - N/A   Scattered Clouds
4:55 PM 82.4 °F 82.3 °F 58.5 °F 44% 29.87 in 10.0 mi West 10.4 mph 19.6 mph N/A   Scattered Clouds
5:35 PM 81.9 °F 81.7 °F 57.4 °F 43% 29.88 in 10.0 mi West 11.5 mph - N/A   Clear
5:55 PM 81.5 °F 81.6 °F 58.1 °F 45% 29.88 in 10.0 mi WSW 9.2 mph - N/A   Clear
6:15 PM 81.9 °F 81.8 °F 57.7 °F 44% 29.88 in 10.0 mi WSW 11.5 mph - N/A   Scattered Clouds
6:35 PM 81.1 °F 81.1 °F 56.8 °F 43% 29.88 in 10.0 mi WSW 10.4 mph - N/A   Scattered Clouds
6:55 PM 81.0 °F 81.0 °F 57.0 °F 44% 29.88 in 10.0 mi WSW 10.4 mph - N/A   Clear
7:15 PM 80.2 °F 80.6 °F 57.6 °F 46% 29.89 in 10.0 mi SW 9.2 mph - N/A   Clear
7:35 PM 79.2 °F - 58.3 °F 49% 29.89 in 10.0 mi SW 9.2 mph - N/A   Clear
7:55 PM 77.2 °F - 59.2 °F 54% 29.90 in 10.0 mi SSW 9.2 mph - N/A   Clear
8:15 PM 76.1 °F - 59.7 °F 57% 29.90 in 10.0 mi SSW 8.1 mph - N/A   Clear
8:35 PM 74.1 °F - 59.9 °F 61% 29.91 in 10.0 mi SSW 6.9 mph - N/A   Clear
8:55 PM 71.8 °F - 59.9 °F 66% 29.91 in 10.0 mi SSW 6.9 mph - N/A   Clear
9:15 PM 70.7 °F - 60.1 °F 69% 29.92 in 10.0 mi SSW 6.9 mph - N/A   Clear
9:35 PM 68.9 °F - 59.9 °F 73% 29.92 in 10.0 mi SSW 5.8 mph - N/A   Clear
9:55 PM 68.2 °F - 59.5 °F 74% 29.93 in 10.0 mi South 6.9 mph - N/A   Clear
10:15 PM 67.3 °F - 59.9 °F 77% 29.94 in 10.0 mi South 8.1 mph - N/A   Clear
10:35 PM 66.7 °F - 60.1 °F 79% 29.95 in 10.0 mi South 8.1 mph - N/A   Clear
11:15 PM 66.7 °F - 61.2 °F 82% 29.97 in 10.0 mi SSW 5.8 mph - N/A   Clear
11:35 PM 65.8 °F - 60.8 °F 84% 29.97 in 10.0 mi SSW 6.9 mph - N/A   Clear
11:55 PM 66.4 °F - 61.5 °F 84% 29.97 in 10.0 mi SSW 6.9 mph - N/A   Clear